Hourly Data Report for August 08, 2016

TORONTO CITY
ONTARIO

43°40'00.000" N
79°24'00.000" W
112.50 m
6158355
71508
XTO

Download Data

Hourly Data (August 2016)
Hourly Data Report for August 8, 2016
TIME
LST
Temp Definition
°C
Dew Point Definition
°C
Rel Hum Definition
%
Precip. Amount Definition
mm

Wind Dir Definition
10's deg

Wind Spd Definition
km/h
Visibility Definition
km
Stn Press Definition
kPa
Hmdx Definition


Wind Chill Definition


Weather Definition


00:00 20.1 11.5 58 0.0 LegendMM LegendMM   100.36     LegendNANA
01:00 18.9 12.4 66 0.0 LegendMM LegendMM   100.37     LegendNANA
02:00 19.2 12.7 66 0.0 LegendMM LegendMM   100.41     LegendNANA
03:00 19.4 13.8 70 0.0 LegendMM LegendMM   100.43     LegendNANA
04:00 19.3 14.5 73 0.0 LegendMM LegendMM   100.48     LegendNANA
05:00 19.2 14.7 75 0.0 LegendMM LegendMM   100.52     LegendNANA
06:00 19.4 15.0 76 0.0 LegendMM LegendMM   100.55     LegendNANA
07:00 20.4 15.0 71 0.0 LegendMM LegendMM   100.59     LegendNANA
08:00 22.9 14.0 57 0.0 LegendMM LegendMM   100.63 26   LegendNANA
09:00 24.4 11.7 45 0.0 LegendMM LegendMM   100.65 27   LegendNANA
10:00 26.0 10.9 39 0.0 LegendMM LegendMM   100.66 28   LegendNANA
11:00 25.6 10.0 37 0.0 LegendMM LegendMM   100.67 27   LegendNANA
12:00 26.6 9.7 34 0.0 LegendMM LegendMM   100.65 28   LegendNANA
13:00 27.0 9.8 34 0.0 LegendMM LegendMM   100.62 28   LegendNANA
14:00 27.6 7.5 28 0.0 LegendMM LegendMM   100.60 28   LegendNANA
15:00 27.6 5.8 25 0.0 LegendMM LegendMM   100.53 27   LegendNANA
16:00 27.9 7.5 28 0.0 LegendMM LegendMM   100.51 28   LegendNANA
17:00 26.9 8.3 31 0.0 LegendMM LegendMM   100.52 27   LegendNANA
18:00 26.3 6.8 29 0.0 LegendMM LegendMM   100.50 26   LegendNANA
19:00 25.5 7.7 32 0.0 LegendMM LegendMM   100.51 26   LegendNANA
20:00 24.4 8.0 35 0.0 LegendMM LegendMM   100.50 25   LegendNANA
21:00 23.3 6.3 33 0.0 LegendMM LegendMM   100.52     LegendNANA
22:00 21.9 8.6 43 0.0 LegendMM LegendMM   100.53     LegendNANA
23:00 21.2 9.3 46 0.0 LegendMM LegendMM   100.56     LegendNANA

Notes on Data Quality.

Legend

  • E = Estimated
  • M = Missing
  • NA = Not Available*
  • [empty] = Indicates an unobserved value
Date modified: